Terminal Aerodrome Forecast
Issued by NWS

Home | Current Version | Previous Version | Text Only | Print | Product List | Glossary On
Versions: 1 2 3 4 5 6 7 8 9 10 11 12 13 14 15 16 17 18 19 20 21
000
FTUS45 KPSR 022200 AAB
TAFIPL
TAF AMD
KIPL 022236Z 0223/0318 25015G22KT P6SM VCTS BKN050CB BKN070
     FM030000 26014KT P6SM VCSH FEW070
     FM030300 27008KT P6SM SCT150
     FM031400 VRB05KT P6SM FEW150=

USA.gov is the U.S. government's official web portal to all federal, state and local government web resources and services.